When you browse on this site, cookies collect data to enhance your experience and personalize the content and advertising you see.
Visit our Privacy Policy to learn more. By continuing to use the site, you agree to this use of cookies and data.
  • In Latvia
  • List of Countries
  • For 7 days
  • Water Temperature
  • Satellite Maps
  • Weather Map
  • Weather Widgets
  • user-avatar
    Login

    Hourly Weather Jalalabad

    Today, 19 June, Wednesday

    Time Temperature Precipitation Wind Pressure Humidity
    00:00 +32°C° 0 mm 2 mps 705 mmHg 29%
    01:00 +31°C° 0 mm 2 mps 704 mmHg 32%
    02:00 +30°C° 0 mm 2 mps 704 mmHg 35%
    03:00 +29°C° 0 mm 1 mps 704 mmHg 38%
    04:00 +28°C° 0 mm 1 mps 704 mmHg 41%
    05:00 +28°C° 0 mm 1 mps 704 mmHg 46%
    06:00 +29°C° 0 mm 1 mps 705 mmHg 44%
    07:00 +30°C° 0 mm 1 mps 705 mmHg 42%
    08:00 +30°C° 0 mm 1 mps 705 mmHg 40%
    09:00 +32°C° 0 mm 1 mps 705 mmHg 36%
    10:00 +33°C° 0 mm 1 mps 705 mmHg 32%
    11:00 +36°C° 0 mm 2 mps 705 mmHg 28%
    12:00 +37°C° 0 mm 2 mps 704 mmHg 24%
    13:00 +38°C° 0 mm 2 mps 704 mmHg 21%
    14:00 +39°C° 0 mm 2 mps 704 mmHg 17%
    15:00 +39°C° 0 mm 2 mps 704 mmHg 16%
    16:00 +40°C° 0 mm 2 mps 703 mmHg 16%
    17:00 +40°C° 0 mm 2 mps 703 mmHg 15%
    18:00 +39°C° 0 mm 2 mps 703 mmHg 18%
    19:00 +37°C° 0 mm 1 mps 704 mmHg 21%
    20:00 +36°C° 0 mm 1 mps 704 mmHg 23%
    21:00 +35°C° 0 mm 1 mps 704 mmHg 25%
    22:00 +35°C° 0 mm 1 mps 704 mmHg 27%
    23:00 +35°C° 0 mm 2 mps 705 mmHg 29%

    Tomorrow, 20 June, Thursday

    Time Temperature Precipitation Wind Pressure Humidity
    00:00 +33°C° 0 mm 1 mps 705 mmHg 31%
    01:00 +33°C° 0 mm 1 mps 704 mmHg 32%
    02:00 +32°C° 0 mm 1 mps 704 mmHg 34%
    03:00 +31°C° 0.2 mm 1 mps 704 mmHg 35%
    04:00 +30°C° 0.2 mm 1 mps 704 mmHg 36%
    05:00 +30°C° 0.2 mm 1 mps 704 mmHg 37%
    06:00 +31°C° 0.1 mm 1 mps 704 mmHg 34%
    07:00 +30°C° 0.1 mm 0 mps 705 mmHg 31%
    08:00 +31°C° 0.1 mm 0 mps 705 mmHg 28%
    09:00 +34°C° 0 mm 1 mps 705 mmHg 27%
    10:00 +36°C° 0 mm 2 mps 705 mmHg 27%
    11:00 +38°C° 0 mm 3 mps 705 mmHg 26%
    12:00 +38°C° 0 mm 3 mps 705 mmHg 24%
    13:00 +39°C° 0 mm 3 mps 705 mmHg 23%
    14:00 +40°C° 0 mm 3 mps 704 mmHg 21%
    15:00 +40°C° 0.1 mm 3 mps 704 mmHg 22%
    16:00 +39°C° 0.1 mm 3 mps 704 mmHg 22%
    17:00 +39°C° 0.1 mm 3 mps 704 mmHg 22%
    18:00 +37°C° 0.1 mm 4 mps 704 mmHg 29%
    19:00 +34°C° 0.1 mm 5 mps 704 mmHg 36%
    20:00 +32°C° 0.1 mm 6 mps 705 mmHg 42%
    21:00 +30°C° 0 mm 4 mps 705 mmHg 42%
    22:00 +30°C° 0 mm 2 mps 705 mmHg 42%
    23:00 +29°C° 0 mm 1 mps 706 mmHg 42%

    Day after tomorrow, 21 June, Friday

    Time Temperature Precipitation Wind Pressure Humidity
    00:00 +27°C° 0.1 mm 0 mps 706 mmHg 44%
    01:00 +27°C° 0.1 mm 0 mps 705 mmHg 46%
    02:00 +26°C° 0.1 mm 0 mps 705 mmHg 47%
    03:00 +26°C° 0.1 mm 0 mps 705 mmHg 48%
    04:00 +26°C° 0.1 mm 0 mps 705 mmHg 49%
    05:00 +25°C° 0.1 mm 0 mps 705 mmHg 50%
    06:00 +26°C° 0 mm 0 mps 706 mmHg 46%
    07:00 +27°C° 0 mm 0 mps 706 mmHg 42%
    08:00 +28°C° 0 mm 0 mps 706 mmHg 39%
    09:00 +32°C° 0 mm 1 mps 706 mmHg 35%
    10:00 +33°C° 0 mm 1 mps 706 mmHg 32%
    11:00 +35°C° 0 mm 1 mps 707 mmHg 28%
    12:00 +37°C° 0 mm 2 mps 706 mmHg 26%
    13:00 +38°C° 0 mm 2 mps 706 mmHg 23%
    14:00 +39°C° 0 mm 3 mps 705 mmHg 21%
    15:00 +40°C° 0 mm 3 mps 705 mmHg 21%
    16:00 +40°C° 0 mm 2 mps 705 mmHg 20%
    17:00 +40°C° 0 mm 2 mps 705 mmHg 20%
    18:00 +39°C° 0 mm 2 mps 705 mmHg 23%
    19:00 +38°C° 0 mm 2 mps 705 mmHg 26%
    20:00 +37°C° 0 mm 2 mps 705 mmHg 29%
    21:00 +36°C° 0 mm 2 mps 705 mmHg 30%
    22:00 +36°C° 0 mm 2 mps 706 mmHg 32%
    23:00 +35°C° 0 mm 2 mps 706 mmHg 34%

    22 June, Saturday

    Time Temperature Precipitation Wind Pressure Humidity
    00:00 +33°C° 0 mm 1 mps 705 mmHg 35%
    01:00 +33°C° 0 mm 1 mps 705 mmHg 37%
    02:00 +30°C° 0 mm 0 mps 704 mmHg 38%
    03:00 +30°C° 0 mm 0 mps 704 mmHg 39%
    04:00 +29°C° 0 mm 0 mps 704 mmHg 39%
    05:00 +31°C° 0 mm 1 mps 704 mmHg 40%
    06:00 +32°C° 0 mm 1 mps 705 mmHg 36%
    07:00 +34°C° 0 mm 1 mps 705 mmHg 32%
    08:00 +35°C° 0 mm 1 mps 705 mmHg 29%
    09:00 +36°C° 0 mm 1 mps 705 mmHg 27%
    10:00 +37°C° 0 mm 1 mps 705 mmHg 25%
    11:00 +39°C° 0 mm 2 mps 706 mmHg 24%
    12:00 +40°C° 0 mm 2 mps 705 mmHg 22%
    13:00 +42°C° 0 mm 3 mps 705 mmHg 21%
    14:00 +43°C° 0 mm 3 mps 705 mmHg 20%
    15:00 +42°C° 0.2 mm 3 mps 704 mmHg 22%
    16:00 +40°C° 0.2 mm 3 mps 704 mmHg 23%
    17:00 +40°C° 0.2 mm 4 mps 704 mmHg 25%
    18:00 +38°C° 0.1 mm 3 mps 704 mmHg 29%
    19:00 +36°C° 0.1 mm 3 mps 704 mmHg 34%
    20:00 +34°C° 0.1 mm 3 mps 705 mmHg 38%
    21:00 +34°C° 0 mm 2 mps 705 mmHg 39%
    22:00 +32°C° 0 mm 1 mps 705 mmHg 40%
    23:00 +32°C° 0 mm 1 mps 705 mmHg 40%

    23 June, Sunday

    Time Temperature Precipitation Wind Pressure Humidity
    00:00 +32°C° 0 mm 1 mps 705 mmHg 42%
    01:00 +31°C° 0 mm 1 mps 705 mmHg 43%
    02:00 +29°C° 0 mm 0 mps 705 mmHg 44%
    03:00 +28°C° 0 mm 0 mps 705 mmHg 45%
    04:00 +28°C° 0 mm 0 mps 705 mmHg 46%
    05:00 +27°C° 0 mm 0 mps 705 mmHg 46%
    06:00 +29°C° 0 mm 0 mps 705 mmHg 42%
    07:00 +30°C° 0 mm 0 mps 705 mmHg 38%
    08:00 +31°C° 0 mm 0 mps 706 mmHg 33%
    09:00 +35°C° 0 mm 1 mps 706 mmHg 29%
    10:00 +36°C° 0 mm 1 mps 706 mmHg 25%
    11:00 +37°C° 0 mm 1 mps 706 mmHg 21%
    12:00 +39°C° 0 mm 1 mps 705 mmHg 19%
    13:00 +40°C° 0 mm 2 mps 705 mmHg 17%
    14:00 +41°C° 0 mm 2 mps 705 mmHg 16%
    15:00 +41°C° 0 mm 2 mps 704 mmHg 16%
    16:00 +42°C° 0 mm 2 mps 704 mmHg 16%
    17:00 +43°C° 0 mm 3 mps 704 mmHg 16%
    18:00 +40°C° 0 mm 3 mps 704 mmHg 20%
    19:00 +38°C° 0 mm 3 mps 704 mmHg 24%
    20:00 +37°C° 0 mm 4 mps 705 mmHg 28%
    21:00 +36°C° 0 mm 3 mps 705 mmHg 29%
    22:00 +36°C° 0 mm 2 mps 705 mmHg 31%
    23:00 +34°C° 0 mm 1 mps 705 mmHg 32%

    24 June, Monday

    Time Temperature Precipitation Wind Pressure Humidity
    00:00 +33°C° 0 mm 1 mps 705 mmHg 33%
    01:00 +33°C° 0 mm 1 mps 705 mmHg 34%
    02:00 +32°C° 0 mm 1 mps 704 mmHg 35%
    03:00 +32°C° 0 mm 1 mps 704 mmHg 35%
    04:00 +32°C° 0 mm 1 mps 704 mmHg 35%
    05:00 +31°C° 0 mm 1 mps 704 mmHg 34%
    06:00 +32°C° 0.2 mm 1 mps 705 mmHg 32%
    07:00 +33°C° 0.2 mm 1 mps 705 mmHg 30%
    08:00 +34°C° 0.2 mm 1 mps 705 mmHg 28%
    09:00 +35°C° 0 mm 1 mps 705 mmHg 27%
    10:00 +37°C° 0 mm 1 mps 705 mmHg 26%
    11:00 +39°C° 0 mm 1 mps 705 mmHg 24%
    12:00 +40°C° 0 mm 1 mps 705 mmHg 22%
    13:00 +41°C° 0 mm 2 mps 704 mmHg 20%
    14:00 +42°C° 0 mm 2 mps 704 mmHg 18%
    15:00 +43°C° 0 mm 3 mps 704 mmHg 18%
    16:00 +43°C° 0 mm 3 mps 704 mmHg 18%
    17:00 +43°C° 0 mm 4 mps 704 mmHg 18%
    18:00 +42°C° 0 mm 4 mps 704 mmHg 20%
    19:00 +39°C° 0 mm 3 mps 704 mmHg 23%
    20:00 +38°C° 0 mm 3 mps 704 mmHg 25%
    21:00 +37°C° 0 mm 2 mps 704 mmHg 27%
    22:00 +37°C° 0 mm 2 mps 704 mmHg 29%
    23:00 +35°C° 0 mm 1 mps 705 mmHg 30%
    Show more